This is the latest recevied weather packets stored in our database for station/object S56WDN-10. If no packets are shown the sender has not sent any weather packets the latest 10 day(s).
| Time | Temp. | Humidity | Pressure | Rain* | Wind** | Luminosity | Snow |
|---|---|---|---|---|---|---|---|
| 1777942019 | 14.44° C | 59% | 1014.3 hPa | 0 mm | - | - | - |
| 1777941719 | 14.44° C | 59% | 1014.5 hPa | 0 mm | - | - | - |
| 1777941419 | 14.44° C | 59% | 1014.5 hPa | 0 mm | - | - | - |
| 1777941119 | 14.44° C | 59% | 1014.5 hPa | 0 mm | - | - | - |
| 1777940819 | 13.89° C | 60% | 1014.5 hPa | 0 mm | - | - | - |
| 1777940519 | 13.89° C | 61% | 1014.6 hPa | 0 mm | - | - | - |
| 1777940219 | 13.33° C | 62% | 1014.7 hPa | 0 mm | - | - | - |
| 1777939919 | 13.33° C | 62% | 1014.7 hPa | 0 mm | - | - | - |
| 1777939619 | 13.33° C | 61% | 1014.8 hPa | 0 mm | - | - | - |
| 1777939319 | 13.33° C | 61% | 1014.9 hPa | 0 mm | - | - | - |
| 1777939019 | 13.89° C | 60% | 1014.9 hPa | 0 mm | - | - | - |
| 1777938719 | 13.89° C | 59% | 1014.9 hPa | 0 mm | - | - | - |
| 1777938419 | 14.44° C | 59% | 1015 hPa | 0 mm | - | - | - |
| 1777938119 | 14.44° C | 59% | 1015.1 hPa | 0 mm | - | - | - |
| 1777937819 | 14.44° C | 59% | 1015.1 hPa | 0 mm | - | - | - |
| 1777937519 | 13.89° C | 59% | 1015.1 hPa | 0 mm | - | - | - |
| 1777937219 | 13.89° C | 60% | 1015.3 hPa | 0 mm | - | - | - |
| 1777936919 | 13.89° C | 61% | 1015.3 hPa | 0 mm | - | - | - |
| 1777936619 | 13.33° C | 61% | 1015.3 hPa | 0 mm | - | - | - |
| 1777936319 | 13.33° C | 61% | 1015.2 hPa | 0 mm | - | - | - |
| 1777936019 | 13.33° C | 61% | 1015.3 hPa | 0 mm | - | - | - |
| 1777935719 | 12.78° C | 61% | 1015.3 hPa | 0 mm | - | - | - |
| 1777935419 | 12.78° C | 61% | 1015.2 hPa | 0 mm | - | - | - |
| 1777935119 | 13.33° C | 61% | 1015.3 hPa | 0 mm | - | - | - |
| 1777934819 | 13.33° C | 60% | 1015.3 hPa | 0 mm | - | - | - |
* Rain latest hour (hover to see other rain measurements)
** Current wind speed in m/s (hover to see current wind gust speed)